Regional Weather Roundup
Issued by NWS New Orleans/Baton Rouge, LA

Home | Current Version | Previous Version | Graphics & Text | Print | Product List | Glossary On
Versions: 1 2 3 4 5 6 7 8 9 10 11 12 13 14 15 16 17 18 19 20 21 22 23 24 25 26 27 28 29 30 31 32 33 34 35 36 37 38 39 40 41 42 43 44 45 46 47 48 49 50
471
ASUS44 KLIX 210205
RWRLIX
NEW ORLEANS REGIONAL WEATHER ROUNDUP
NATIONAL WEATHER SERVICE NEW ORLEANS LA
900 PM CDT MON OCT 20 2014

NOTE: "FAIR" INDICATES FEW OR NO CLOUDS BELOW 12,000 FEET WITH NO
      SIGNIFICANT WEATHER AND/OR OBSTRUCTIONS TO VISIBILITY.
      SKY/WX - SKY CONDITION AND SIGNIFICANT WEATHER.
      TMP - AIR TEMPERATURE.     DP    - DEWPOINT TEMPERATURE.
      RH  - RELATIVE HUMIDITY.   PRES  - PRESSURE.
      HI  - HEAT INDEX.          WCI   - WIND CHILL INDEX.

*  THESE STATIONS ARE NOT NWS OR FAA STATIONS AND ARE NOT UNDER
   NWS QUALITY CONTROL.

LAZ038-040-048-061>063-065>067-069-210300-
SOUTHEAST LOUISIANA

CITY           SKY/WX    TMP DP  RH WIND       PRES   REMARKS
N.O. AUDUBON   NOT AVBL
N.O. INTL ARPT PTCLDY    69  54  58 N3        30.01S
N.O. LAKEFRONT CLEAR     73  55  53 N6        30.01S
N.O. DOWNTOWN*   N/A     73  54  49 N3        30.01S
SLIDELL        CLEAR     59  56  89 CALM      30.01R
BATON ROUGE    CLEAR     60  57  89 CALM      30.03R
BOOTHVILLE     CLEAR     72  65  78 NE6       30.01R
BELLE CHASSE   PTCLDY    60  55  83 CALM      30.00S
BOGALUSA*        N/A     58  52  82 CALM      30.03S
NEW ROADS*       N/A     61  56  84 CALM      30.03R
GONZALES*        N/A     59  59 100 CALM      30.01S
HAMMOND*         N/A     59  54  82 CALM      30.03S
HOUMA*         CLEAR     65  56  72 NE5       30.00S
PORT FOURCHON* MOCLDY    72  63  73 NE9       30.03S

$$

MSZ070-080>082-210300-
SOUTHERN MISSISSIPPI

CITY           SKY/WX    TMP DP  RH WIND       PRES   REMARKS
MCCOMB         CLEAR     58  53  84 CALM      30.03S
GULFPORT       CLEAR     61  55  81 CALM      30.00R
BILOXI         CLEAR     66  56  71 VRB3      30.01R
PASCAGOULA     CLEAR     54  51  90 CALM      30.01R
STENNIS ARPT*  CLEAR     59  55  88 CALM      30.02R

$$

COASTAL OBSERVATIONS
LAKE AND NEARSHORE STATIONS

STATION/POSITION TIME  TEMP    WIND        PRES    WAVE
                       AIR SEA DIR/SP/G            HT/PER
                 (UTC) (F)     (DEG/KT/KT) (MB)    (FT/S)
PASCAGOULA       0100          330/  3/  3   N/A
WAVELAND YACHT   0100          280/  2/  3   N/A
GRAND ISLE       0100      78                N/A
SOUTHWEST PASS   0100      84                N/A
NEW CANAL        0100      73                N/A
SHELL BEACH      0100      70                N/A

OFFSHORE STATIONS

STATION/POSITION TIME  TEMP    WIND        PRES    WAVE
                       AIR SEA DIR/SP/G            HT/PER
                 (UTC) (F)     (DEG/KT/KT) (MB)    (FT/S)
64 S DAUPHIN ISL 0131   74 79   20/ 10/ 12 1016.1    1/ 4

$$




USA.gov is the U.S. government's official web portal to all federal, state and local government web resources and services.